Location: Iroquois Falls
(48.7680°N, 80.6732°W)
Time: 06:02:18
(UTC-04:00)

ISS - Visible Passes

Search period start: 16 July 2019 00:00
Search period end: 26 July 2019 00:00
Orbit: 409 x 418 km, 51.6° (Epoch: 16 July)

Date Brightness Start Highest point End Pass type
(mag) Time Alt. Az. Time Alt. Az. Time Alt. Az.
16 Jul -3.9 00:06:59 10° WSW 00:10:18 68° SSE 00:13:36 10° ENE visible
16 Jul -2.9 01:43:49 10° W 01:47:05 51° N 01:50:21 10° ENE visible
16 Jul -3.4 03:20:44 10° WNW 03:24:03 64° NNE 03:27:20 10° E visible
16 Jul -3.6 23:17:50 10° SW 23:21:03 45° SSE 23:24:15 10° ENE visible
17 Jul -3.2 00:54:25 10° W 00:57:43 58° N 01:01:01 10° ENE visible
17 Jul -3.1 02:31:24 10° WNW 02:34:41 54° N 02:37:57 10° E visible
17 Jul -3.7 04:08:09 10° WNW 04:11:25 55° SSW 04:14:39 10° SE visible
17 Jul -3.0 22:28:53 10° SSW 22:31:50 30° SE 22:34:49 10° E visible
18 Jul -3.6 00:05:01 10° WSW 00:08:21 72° NNW 00:11:42 10° ENE visible
18 Jul -2.9 01:42:03 10° WNW 01:45:18 49° N 01:48:33 10° E visible
18 Jul -4.0 03:18:48 10° WNW 03:22:08 80° SSW 03:25:27 10° ESE visible
18 Jul -2.3 04:56:08 10° W 04:58:25 17° SW 05:00:41 10° S visible
18 Jul -3.9 23:15:41 10° WSW 23:19:01 87° SSE 23:22:22 10° ENE visible
19 Jul -2.8 00:52:38 10° W 00:55:53 49° N 00:59:08 10° ENE visible
19 Jul -3.7 02:29:28 10° WNW 02:32:48 77° NNE 02:36:07 10° ESE visible
19 Jul -2.8 04:06:25 10° W 04:09:16 26° SW 04:12:06 10° SSE visible
19 Jul -3.8 22:26:25 10° SW 22:29:42 61° SSE 22:33:01 10° ENE visible
20 Jul -3.0 00:03:11 10° W 00:06:28 53° N 00:09:45 10° ENE visible
20 Jul -3.3 01:40:07 10° WNW 01:43:26 61° NNE 01:45:57 16° E visible
20 Jul -2.3 03:16:55 10° WNW 03:18:29 23° W 03:18:29 23° W visible
20 Jul -3.3 23:13:45 10° W 23:17:04 61° NNW 23:20:22 10° ENE visible
21 Jul -3.0 00:50:45 10° WNW 00:54:01 52° N 00:56:07 20° E visible
21 Jul -2.0 02:27:29 10° WNW 02:28:52 22° WNW 02:28:52 22° WNW visible
21 Jul -3.6 22:24:19 10° WSW 22:27:40 77° NNW 22:31:01 10° ENE visible
22 Jul -2.9 00:01:19 10° WNW 00:04:35 49° N 00:07:36 12° ENE visible
22 Jul -2.9 01:38:06 10° WNW 01:40:23 40° WNW 01:40:23 40° WNW visible
22 Jul -2.9 23:11:52 10° W 23:15:07 50° N 23:18:24 10° ENE visible
23 Jul -3.7 00:48:44 10° WNW 00:52:04 72° NNE 00:52:10 71° NE visible
23 Jul -3.0 22:22:23 10° W 22:25:41 54° N 22:28:58 10° ENE visible
23 Jul -3.3 23:59:20 10° WNW 00:02:38 58° NNE 00:04:06 29° E visible
24 Jul -1.4 01:36:05 10° WNW 01:36:54 16° W 01:36:54 16° W visible
24 Jul -3.0 23:09:54 10° WNW 23:13:10 51° N 23:16:07 12° E visible
25 Jul -2.8 00:46:39 10° WNW 00:48:55 39° W 00:48:55 39° W visible
25 Jul -2.9 22:20:26 10° WNW 22:23:41 49° N 22:26:56 10° ENE visible
